Flag for United Kingdom Weather past 2 weeks in Guildford, England, United Kingdom

Now
54 °F

Scattered clouds.


Feels Like: 54 °F
Forecast: 50 / 63 °F
Wind: 2 mph from North

Location: Farnborough Airport

Current Time: Sep 23, 2014 at 10:24:33 AM

Latest Report: Sep 23, 2014 at 9:50 AM


Visibility: 4 mi

Pressure: 30.18 "Hg

Humidity: 88%

Dew point: 50 °F

Location of GuildfordLocation

Historic Weather in Guildford — Graph

°F

Guildford temperature yesterday

Maximum temperature yesterday: 64 °F (at 2:50 PM)
Minimum temperature yesterday: 41 °F (at 6:50 AM)
Average temperature yesterday: 56 °F

Past Weeks' High & Low Weather Summary

 TemperatureHumidityPressure
High77 °F (Sep 18, 3:20 PM)100% (Sep 9, 7:50 AM)30.33 "Hg (Sep 9, 7:50 AM)
Low39 °F (Sep 23, 6:50 AM)35% (Sep 12, 5:50 PM)29.77 "Hg (Sep 18, 1:50 PM)
Average63 °F74%30.09 "Hg
* Reported Sep 8 9:20 AM — Sep 23 9:20 AM, Guildford, Weather by CustomWeather, © 2014

Note: Actual official high and low records may vary slightly from our data, if they occured in-between our weather recording intervals... More about our weather records

Advertising

Guildford weather history for previous 24 hours

 ConditionsComfort  
Time TempWeatherWind HumidityBarometerVisibility
9:20 AM
Sep 23
52 °FHaze.No wind82%30.18 "Hg3 mi
8:50 AM45 °FHaze.No wind93%30.18 "Hg3 mi
8:20 AM45 °FClear.No wind93%30.18 "Hg4 mi
7:50 AM41 °FFog.2 mph93%30.18 "Hg2 mi
7:20 AM39 °FLight fog.2 mph100%30.18 "Hg2 mi
6:50 AM39 °FLight fog.2 mph100%30.18 "Hg2 mi
9:20 PM
Sep 22
46 °FClear.5 mph93%30.24 "Hg4 mi
8:50 PM50 °FClear.3 mph88%30.27 "Hg5 mi
8:20 PM50 °FClear.2 mph88%30.24 "Hg5 mi
7:50 PM52 °FClear.5 mph88%30.24 "Hg4 mi
7:20 PM54 °FSunny.5 mph82%30.24 "Hg10 mi
6:50 PM57 °FSunny.3 mph77%30.24 "Hg10 mi
6:20 PM63 °FSunny.3 mph52%30.24 "Hg10 mi
5:50 PM64 °FSunny.3 mph49%30.24 "Hg10 mi
5:20 PM64 °FPassing clouds.6 mph49%30.24 "HgN/A
4:50 PM64 °FPassing clouds.6 mph46%30.24 "HgN/A
4:20 PM64 °FPassing clouds.7 mph49%30.27 "HgN/A
3:50 PM64 °FPassing clouds.6 mph49%30.27 "HgN/A
3:20 PM63 °FPassing clouds.3 mph56%30.27 "HgN/A
2:50 PM64 °FPassing clouds.3 mph52%30.27 "HgN/A
2:20 PM63 °FPassing clouds.6 mph52%30.27 "HgN/A
1:20 PM61 °FSunny.3 mph59%30.30 "Hg10 mi
12:50 PM61 °FSunny.6 mph59%30.30 "Hg10 mi
12:20 PM61 °FSunny.6 mph59%30.30 "Hg10 mi
11:50 AM59 °FSunny.6 mph59%30.30 "Hg10 mi
11:20 AM59 °FSunny.3 mph63%30.30 "Hg10 mi
10:50 AM57 °FPassing clouds.5 mph72%30.33 "HgN/A
10:20 AM55 °FClear.3 mph72%30.33 "Hg6 mi
Weather by CustomWeather, © 2014

See weather overviewHow to use our weather pages

Japan